Waarnemingen

Advertentie
Mijn weer
Cap Corse, Frankrijk (7785): temperatuur & dauwpunt: 07.12.2019 23:00:00 - 13.12.2019 23:00:00 (CET)Cap Corse, Frankrijk (7785): windsnelheid & windstoten: 07.12.2019 23:00:00 - 13.12.2019 23:00:00 (CET)Cap Corse, Frankrijk (7785): windrichting: 07.12.2019 23:00:00 - 13.12.2019 23:00:00 (CET)Cap Corse, Frankrijk (7785): luchtdruk: 07.12.2019 23:00:00 - 13.12.2019 23:00:00 (CET)Cap Corse, Frankrijk (7785): zicht: 07.12.2019 23:00:00 - 13.12.2019 23:00:00 (CET)Cap Corse, Frankrijk (7785): neerslag: 07.12.2019 23:00:00 - 13.12.2019 23:00:00 (CET)
Datum & Tijd tt [°C] td [°C] ff [km/u] ff [kn] fx [km/u] fx [kn] dd ppp [hPa] vv [km] rr [mm]
13.12.2019 23:00:00 13,1 7,3 63 34 102 55 W 993,4 - 0,0
13.12.2019 22:00:00 12,5 6,3 74 40 - - W 992,9 - 0,0
13.12.2019 21:00:00 12,7 6,3 74 40 98 53 W 992,2 - 0,0
13.12.2019 20:00:00 12,8 7,5 80 43 108 58 W 991,2 - 0,0
13.12.2019 19:00:00 13,2 7,0 78 42 105 57 W 990,1 - 0,0
13.12.2019 18:00:00 11,0 7,3 47 26 58 32 W 989,8 - 0,0
13.12.2019 17:00:00 10,4 6,9 40 22 58 31 W 989,1 - 0,0
13.12.2019 16:00:00 10,5 7,4 41 22 61 33 WNW 987,8 12 0,0
13.12.2019 15:00:00 11,5 8,4 - - - - - 985,8 - 0,0
13.12.2019 14:00:00 15,1 9,2 97 53 140 75 W 983,2 - 0,0
13.12.2019 13:00:00 14,3 10,7 98 53 169 91 W 982,8 - 0,0
13.12.2019 12:00:00 14,0 12,4 82 44 174 94 WZW 983,9 - 0,8
13.12.2019 11:00:00 13,5 12,1 91 49 148 80 WZW 986,4 - 0,4
13.12.2019 10:00:00 13,2 10,9 69 38 129 70 WZW 988,7 - 0,2
13.12.2019 09:00:00 12,8 11,5 63 34 113 61 WZW 990,7 - 0,6
13.12.2019 08:00:00 12,5 10,6 58 32 95 52 W 991,8 - 0,0
13.12.2019 07:00:00 12,5 9,5 62 34 100 54 W 992,9 - 0,0
13.12.2019 06:00:00 11,0 9,6 37 20 85 46 WZW 993,9 - 3,9
13.12.2019 05:00:00 9,9 8,3 32 18 66 35 ZW 995,1 - 3,0
13.12.2019 04:00:00 10,0 7,4 12 7 40 22 ZZO 996,4 - 0,2
13.12.2019 03:00:00 11,0 6,1 16 8 52 28 ZZW 998,0 - 0,0
13.12.2019 02:00:00 10,9 6,8 26 14 84 46 ZW 999,1 - 0,2
13.12.2019 01:00:00 10,4 8,2 41 22 118 64 WZW 999,7 - 1,4
13.12.2019 00:00:00 12,4 7,9 54 29 98 53 W 1001,0 - 0,0
12.12.2019 23:00:00 12,2 6,2 69 38 97 53 W 1001,0 - 0,0
12.12.2019 22:00:00 11,7 3,7 57 31 91 49 WZW 1001,7 - 0,0
12.12.2019 21:00:00 11,2 3,0 48 26 82 45 WZW 1002,8 - 0,0
12.12.2019 20:00:00 11,0 3,0 47 25 71 38 W 1003,3 - 0,0
12.12.2019 19:00:00 10,8 3,3 45 25 68 37 W 1003,9 - 0,0
12.12.2019 18:00:00 10,6 2,9 46 25 78 42 W 1003,7 - 0,0
12.12.2019 17:00:00 10,6 3,8 49 26 71 38 W 1003,8 - 0,0
12.12.2019 16:00:00 10,9 4,1 49 27 71 39 W 1003,8 15 0,0
12.12.2019 15:00:00 10,9 5,2 42 23 61 33 W 1004,1 - 0,0
12.12.2019 14:00:00 11,2 6,3 28 15 41 22 W 1004,8 - 0,0
12.12.2019 13:00:00 11,6 6,9 29 16 72 39 W 1004,9 - 0,0
12.12.2019 12:00:00 11,7 7,4 53 28 86 47 W 1004,5 - 0,0
12.12.2019 11:00:00 11,3 5,4 47 25 86 47 WZW 1004,7 - 0,0
12.12.2019 10:00:00 11,3 5,8 48 26 67 36 W 1004,7 15 0,0
12.12.2019 09:00:00 11,1 5,0 51 28 82 44 W 1004,2 - 0,0
12.12.2019 08:00:00 11,0 5,3 56 30 81 44 W 1003,4 - 0,0
12.12.2019 07:00:00 10,2 8,0 41 22 56 31 W 1003,9 - 0,0
12.12.2019 06:00:00 10,5 8,4 44 24 60 33 W 1003,7 - 0,0
12.12.2019 05:00:00 10,5 8,6 47 26 103 56 WNW 1003,3 - 0,4
12.12.2019 04:00:00 11,4 6,3 61 33 129 69 WZW 1002,4 - 0,0
12.12.2019 03:00:00 12,1 5,9 68 37 100 54 WZW 1002,6 - 0,0
12.12.2019 02:00:00 11,7 8,2 58 31 98 53 WZW 1004,5 - 0,2
12.12.2019 01:00:00 11,5 7,6 35 19 82 44 ZW 1006,2 - 0,0
12.12.2019 00:00:00 12,6 8,3 48 26 87 47 WZW 1007,0 - 0,0
11.12.2019 23:00:00 13,3 7,7 59 32 87 47 W 1007,0 - 0,0
11.12.2019 22:00:00 13,2 7,0 43 23 88 47 WZW 1007,7 - 0,0
11.12.2019 21:00:00 12,9 6,5 50 27 74 40 WZW 1008,6 - 0,0
11.12.2019 20:00:00 12,7 5,1 44 24 67 36 WZW 1009,6 - 0,0
11.12.2019 19:00:00 12,5 4,2 42 23 58 31 W 1010,8 - 0,0
11.12.2019 18:00:00 12,2 2,6 39 21 48 26 W 1011,4 - 0,0
11.12.2019 17:00:00 12,1 3,1 35 19 48 26 W 1012,1 - 0,0
11.12.2019 16:00:00 12,1 2,5 24 13 32 17 W 1012,6 15 0,0
11.12.2019 15:00:00 12,9 3,0 20 11 29 16 W 1013,1 - 0,0
11.12.2019 14:00:00 13,9 3,1 21 11 29 16 W 1014,0 - 0,0
11.12.2019 13:00:00 13,6 5,5 22 12 39 21 W 1014,8 - 0,0
11.12.2019 12:00:00 13,5 6,1 21 11 35 19 WZW 1015,5 - 0,0
11.12.2019 11:00:00 12,9 5,8 16 8 34 18 WZW 1016,6 - 0,0
11.12.2019 10:00:00 11,7 5,6 18 10 29 16 ZW 1017,2 - 0,0
11.12.2019 09:00:00 9,7 3,6 0 0 11 6 N 1017,7 - 0,0
11.12.2019 08:00:00 8,5 2,9 10 5 16 8 O 1017,9 - 0,0
11.12.2019 07:00:00 9,2 2,7 12 7 26 14 O 1018,2 - 0,0
11.12.2019 06:00:00 9,5 2,6 14 8 24 13 O 1018,2 - 0,0
11.12.2019 05:00:00 10,1 2,7 19 10 29 16 OZO 1018,5 - 0,0
11.12.2019 04:00:00 10,2 2,5 20 11 41 22 OZO 1019,1 - 0,0
11.12.2019 03:00:00 11,1 2,6 24 13 41 22 O 1019,4 - 0,0
11.12.2019 02:00:00 12,4 2,8 26 14 43 23 O 1019,7 - 0,0
11.12.2019 01:00:00 12,5 3,2 32 17 53 28 O 1019,9 - 0,0
11.12.2019 00:00:00 12,6 3,3 38 21 58 31 O 1020,0 - 0,0
10.12.2019 23:00:00 13,0 1,6 40 21 61 33 O 1020,1 - 0,0
10.12.2019 22:00:00 13,4 2,9 38 20 54 29 O 1019,5 - 0,0
10.12.2019 21:00:00 13,2 3,8 31 17 46 25 O 1019,8 - 0,0
10.12.2019 20:00:00 12,4 3,3 21 11 39 21 O 1019,4 - 0,0
10.12.2019 19:00:00 12,4 3,9 21 12 34 18 O 1018,7 - 0,0
10.12.2019 18:00:00 12,0 4,5 18 10 29 16 O 1017,9 - 0,0
10.12.2019 17:00:00 12,1 5,0 21 12 31 17 OZO 1017,3 - 0,0
10.12.2019 16:00:00 11,8 5,0 16 9 22 12 O 1017,1 20 0,0
10.12.2019 15:00:00 14,2 5,0 17 9 26 14 O 1016,9 - 0,0
10.12.2019 14:00:00 14,6 6,4 16 8 27 15 O 1016,6 - 0,0
10.12.2019 13:00:00 14,7 6,5 16 9 27 15 O 1016,6 - 0,0
10.12.2019 12:00:00 14,7 7,0 18 10 32 17 O 1016,5 - 0,0
10.12.2019 11:00:00 15,0 7,3 18 10 31 17 O 1016,0 - 0,0
10.12.2019 10:00:00 14,9 7,9 23 12 36 19 ONO 1015,2 - 0,0
10.12.2019 09:00:00 13,9 7,0 24 13 38 21 ONO 1014,4 - 0,0
10.12.2019 08:00:00 13,8 6,9 33 18 58 31 ONO 1013,4 - 0,0
10.12.2019 07:00:00 14,4 6,7 43 23 66 35 N 1012,3 15 0,0
10.12.2019 06:00:00 14,2 7,0 44 24 57 31 N 1011,3 - 0,0
10.12.2019 05:00:00 14,1 6,9 49 26 63 34 N 1010,4 - 0,0
10.12.2019 04:00:00 13,9 6,3 39 21 47 25 N 1010,1 - 0,0
10.12.2019 03:00:00 13,4 6,3 24 13 52 28 NNW 1009,5 - 0,0
10.12.2019 02:00:00 12,5 7,6 31 17 61 33 ZW 1008,8 - 0,0
10.12.2019 01:00:00 12,6 7,5 38 21 59 32 ZW 1008,4 - 0,0
10.12.2019 00:00:00 12,7 7,2 41 22 74 40 ZW 1008,3 - 0,0
09.12.2019 23:00:00 13,0 6,8 40 22 68 37 ZW 1007,8 - 0,0
09.12.2019 22:00:00 13,5 6,8 45 24 79 43 ZW 1007,6 - 0,0
09.12.2019 21:00:00 13,5 6,8 42 23 83 45 WZW 1007,1 - 0,0
09.12.2019 20:00:00 13,6 6,9 48 26 82 44 WZW 1007,5 - 0,0
09.12.2019 19:00:00 13,6 6,9 50 27 91 49 W 1007,5 - 0,0
09.12.2019 18:00:00 14,0 7,3 64 34 96 52 WZW 1007,4 - 0,0
09.12.2019 17:00:00 14,1 8,9 70 38 105 57 W 1006,9 - 0,0
09.12.2019 16:00:00 14,2 8,4 70 38 106 57 W 1007,6 15 0,0
09.12.2019 15:00:00 14,5 8,2 82 44 110 59 W 1006,4 - 0,0
09.12.2019 14:00:00 14,4 8,8 75 40 101 54 W 1007,0 - 0,0
09.12.2019 13:00:00 14,6 8,5 66 36 89 48 W 1008,6 15 0,0
09.12.2019 12:00:00 14,2 8,6 68 37 100 54 W 1009,4 - 0,0
09.12.2019 11:00:00 14,3 8,5 74 40 120 65 W 1009,7 - 0,0
09.12.2019 10:00:00 14,4 7,0 89 48 138 75 W 1008,9 15 0,0
09.12.2019 09:00:00 14,5 11,1 80 43 138 74 W 1007,7 - 0,0
09.12.2019 08:00:00 14,8 12,1 66 35 129 70 W 1008,8 - 0,0
09.12.2019 07:00:00 15,0 11,9 63 34 113 61 WZW 1009,2 12 0,0
09.12.2019 06:00:00 14,5 10,9 63 34 109 59 WZW 1009,7 - 0,0
09.12.2019 05:00:00 13,9 10,9 57 31 119 64 WZW 1011,3 - 0,0
09.12.2019 04:00:00 14,5 9,7 52 28 132 71 WZW 1011,8 - 0,0
09.12.2019 03:00:00 14,4 10,6 68 37 114 61 W 1012,7 - 0,0
09.12.2019 02:00:00 14,3 10,1 53 29 115 62 WZW 1013,9 - 0,0
09.12.2019 01:00:00 14,3 9,5 54 29 108 59 WZW 1014,6 - 0,0
09.12.2019 00:00:00 14,1 9,7 60 33 98 53 W 1015,2 - 0,0
08.12.2019 23:00:00 14,3 10,3 51 28 107 58 WZW 1016,2 - 0,0
08.12.2019 22:00:00 14,1 10,5 53 29 84 45 W 1016,9 - 0,0
08.12.2019 21:00:00 14,4 10,2 55 30 76 41 W 1016,8 - 0,0
08.12.2019 20:00:00 14,3 10,5 50 27 70 38 W 1017,4 - 0,0
08.12.2019 19:00:00 14,4 10,8 48 26 63 34 W 1017,5 - 0,0
08.12.2019 18:00:00 14,3 10,3 44 24 66 36 W 1017,8 - 0,0
08.12.2019 17:00:00 14,4 9,2 48 26 68 37 W 1017,9 - 0,0
08.12.2019 16:00:00 15,0 11,4 51 28 69 37 W 1018,1 15 0,0
08.12.2019 15:00:00 15,4 11,6 48 26 63 34 W 1018,3 - 0,0
08.12.2019 14:00:00 16,1 11,9 31 17 41 22 W 1019,1 - 0,0
08.12.2019 13:00:00 16,8 8,5 18 10 39 21 WZW 1019,8 - 0,0
08.12.2019 12:00:00 15,8 8,8 14 8 35 19 ZW 1020,5 - 0,0
08.12.2019 11:00:00 16,2 8,9 18 10 36 19 ZW 1020,9 - 0,0
08.12.2019 10:00:00 14,8 8,7 14 7 22 12 ZW 1021,2 - 0,0
08.12.2019 09:00:00 13,7 9,1 15 8 19 10 ZW 1021,2 - 0,0
08.12.2019 08:00:00 12,6 8,3 14 7 23 13 ZW 1020,4 - 0,0
08.12.2019 07:00:00 11,9 8,7 10 5 21 11 WZW 1020,4 - 0,0
08.12.2019 06:00:00 11,9 9,3 5 3 11 6 W 1020,3 - 0,0
08.12.2019 05:00:00 12,2 9,4 16 9 30 16 W 1020,0 12 0,0
08.12.2019 04:00:00 12,9 10,1 19 10 26 14 ZO 1019,8 - 0,0
08.12.2019 03:00:00 12,3 9,5 10 5 14 8 O 1020,4 - 0,0
08.12.2019 02:00:00 11,9 7,6 9 5 18 10 WZW 1020,6 - 0,0
08.12.2019 01:00:00 12,4 8,3 14 7 27 14 ZZW 1020,8 - 0,0
08.12.2019 00:00:00 12,6 8,5 16 8 34 18 ZZW 1021,1 - 0,0
07.12.2019 23:00:00 13,9 9,9 22 12 50 27 ZW 1021,0 - 0,0

tt = temperatuur
td = dauwpunt
ff = windsnelheid
fx = windstoten
dd = windrichting
ppp = luchtdruk
vv = zicht
rr = neerslag

Weerstations in de omgeving